Location: Devore Heights
(34.2372°N, 117.4156°W)
Time: 03:59:40
(UTC+00:00)

S-56A Canister/Altair - Pass Details

Date: 13 September 2024
Orbit: 636 x 2487 km, 38.9° (Epoch: 05 October)

Event Time Altitude Azimuth Distance (km) Brightness Sun altitude
Rises 04:56:28 0° 276° (W) 3,697 11.8 -35.1°
Reaches altitude 10° 04:58:45 10° 279° (W) 2,935 11.1 -35.5°
Maximum altitude 05:06:03 66° 2° (N) 1,561 8.9 -36.7°
Enters shadow 05:06:46 64° 26° (NNE) 1,620 9.0 -36.8°
Drops below altitude 10° 05:17:18 10° 83° (E) 4,401 - -38.5°
Sets 05:21:29 0° 86° (E) 5,650 - -39.2°
